Hutchinson, MN

2:39 AM CST on December 09, 2016 (GMT -0600)
Hutchinson Municipal-Butler

Weather History for KHCD - August, 2013

Change the Weather History Date:

Saturday, August 3, 2013

  Actual Average Record
Temperature  
Mean Temperature 64 °F -  
Max Temperature 77 °F 82 °F 97 °F (1964)
Min Temperature 50 °F 58 °F 41 °F (1978)
Degree Days  
Heating Degree Days 2    
Growing Degree Days 14 (Base 50)    
Moisture  
Dew Point 53 °F    
Average Humidity 68    
Maximum Humidity 97    
Minimum Humidity 39    
Precipitation  
Precipitation 0.00 in - - ()
Sea Level Pressure  
Sea Level Pressure 30.16 in    
Wind  
Wind Speed 2 mph (NNW)    
Max Wind Speed 10 mph    
Max Gust Speed 18 mph    
Visibility 10 miles    
Events      
Averages and records for this station are not official NWS values.
T = Trace of Precipitation, MM = Missing Value Source: NWS Daily Summary

Daily Weather History Graph

Daily Weather History Graph

Search for Another Location

Airport or City:

Trip Planner

Search our weather history database for the weather conditions in past years. The results will help you decide how hot, cold, wet, or windy it might be!

Date:

Astronomy

Aug. 03, 2013 Rise Set
Actual Time 6:05 AM CDT 8:40 PM CDT
Civil Twilight 5:32 AM CDT 9:13 PM CDT
Nautical Twilight 4:50 AM CDT 9:55 PM CDT
Astronomical Twilight 4:02 AM CDT 10:43 PM CDT
Moon 3:14 AM CDT (8/3) 6:24 PM CDT (8/3)
Length of Visible Light 15h 41m
Length of Day
14h 34m
Waning Crescent, 9% of the Moon is Illuminated
Aug 3
Waning Crescent
Aug 6
New
Aug 14
First Quarter
Aug 20
Full
Aug 28
Last Quarter

Hourly Weather History & Observations

Time (CDT) Temp. Dew Point Humidity Pressure Visibility Wind Dir Wind Speed Gust Speed Precip Events Conditions
12:14 AM 55.4 °F 53.4 °F 93% 30.08 in 10.0 mi Calm Calm - N/A   Scattered Clouds
12:33 AM 55.6 °F 53.2 °F 92% 30.08 in 10.0 mi Calm Calm - N/A   Scattered Clouds
12:54 AM 54.1 °F 52.3 °F 94% 30.09 in 10.0 mi Calm Calm - N/A   Clear
1:14 AM 54.0 °F 52.5 °F 95% 30.09 in 10.0 mi Calm Calm - N/A   Scattered Clouds
1:34 AM 53.8 °F 52.0 °F 94% 30.09 in 10.0 mi WNW 3.5 mph - N/A   Scattered Clouds
1:54 AM 53.8 °F 52.5 °F 95% 30.09 in 10.0 mi Calm Calm - N/A   Clear
2:13 AM 55.0 °F 52.9 °F 92% 30.09 in 10.0 mi Calm Calm - N/A   Clear
2:34 AM 54.0 °F 51.4 °F 91% 30.09 in 10.0 mi Calm Calm - N/A   Clear
2:53 AM 52.5 °F 51.1 °F 95% 30.10 in 10.0 mi Calm Calm - N/A   Clear
3:14 AM 54.0 °F 52.3 °F 94% 30.09 in 10.0 mi Calm Calm - N/A   Clear
3:34 AM 53.2 °F 51.4 °F 94% 30.10 in 10.0 mi Calm Calm - N/A   Clear
3:54 AM 52.5 °F 51.6 °F 97% 30.11 in 10.0 mi Calm Calm - N/A   Clear
4:13 AM 52.3 °F 51.1 °F 95% 30.11 in 10.0 mi Calm Calm - N/A   Clear
4:33 AM 53.2 °F 51.6 °F 94% 30.11 in 10.0 mi Calm Calm - N/A   Clear
4:54 AM 52.0 °F 51.1 °F 97% 30.11 in 10.0 mi Calm Calm - N/A   Clear
5:13 AM 55.6 °F 51.8 °F 87% 30.11 in 10.0 mi NNE 3.5 mph - N/A   Clear
5:33 AM 53.2 °F 50.7 °F 91% 30.12 in 10.0 mi Calm Calm - N/A   Clear
5:54 AM 53.4 °F 50.9 °F 91% 30.12 in 10.0 mi Calm Calm - N/A   Clear
6:13 AM 51.3 °F 49.8 °F 95% 30.13 in 10.0 mi Calm Calm - N/A   Clear
6:34 AM 50.5 °F 49.5 °F 96% 30.14 in 10.0 mi NW 4.6 mph - N/A   Clear
6:54 AM 52.9 °F 51.4 °F 95% 30.14 in 10.0 mi Calm Calm - N/A   Clear
7:13 AM 55.2 °F 53.8 °F 95% 30.14 in 10.0 mi Calm Calm - N/A   Clear
7:34 AM 58.1 °F 56.1 °F 93% 30.15 in 10.0 mi Calm Calm - N/A   Clear
7:53 AM 60.6 °F 56.1 °F 85% 30.16 in 10.0 mi Calm Calm - N/A   Clear
8:14 AM 62.2 °F 56.7 °F 82% 30.16 in 10.0 mi Calm Calm - N/A   Clear
8:33 AM 63.9 °F 57.6 °F 80% 30.16 in 10.0 mi Calm Calm - N/A   Clear
8:54 AM 65.7 °F 58.3 °F 77% 30.16 in 10.0 mi Calm Calm - N/A   Clear
9:13 AM 67.5 °F 56.5 °F 68% 30.17 in 10.0 mi Calm Calm - N/A   Clear
9:34 AM 68.9 °F 58.5 °F 69% 30.17 in 10.0 mi West 3.5 mph - N/A   Clear
9:54 AM 70.7 °F 57.6 °F 63% 30.18 in 10.0 mi Calm Calm - N/A   Clear
10:13 AM 71.1 °F 57.2 °F 61% 30.18 in 10.0 mi West 5.8 mph - N/A   Clear
10:34 AM 71.2 °F 56.1 °F 59% 30.19 in 10.0 mi WNW 5.8 mph - N/A   Clear
10:54 AM 70.7 °F 56.7 °F 61% 30.18 in 10.0 mi West 4.6 mph - N/A   Clear
11:14 AM 71.2 °F 56.1 °F 59% 30.19 in 10.0 mi West 6.9 mph - N/A   Clear
11:34 AM 72.3 °F 56.7 °F 58% 30.18 in 10.0 mi NW 6.9 mph - N/A   Clear
11:53 AM 73.2 °F 56.3 °F 55% 30.18 in 10.0 mi North 3.5 mph - N/A   Clear
12:14 PM 74.5 °F 53.6 °F 48% 30.19 in 10.0 mi NNW 5.8 mph - N/A   Scattered Clouds
12:34 PM 73.9 °F 53.6 °F 49% 30.19 in 10.0 mi North 6.9 mph - N/A   Mostly Cloudy
12:53 PM 74.7 °F 54.7 °F 50% 30.19 in 10.0 mi NNW 6.9 mph - N/A   Scattered Clouds
1:14 PM 75.0 °F 52.5 °F 45% 30.19 in 10.0 mi NW 8.1 mph 18.4 mph N/A   Mostly Cloudy
1:34 PM 75.0 °F 54.1 °F 48% 30.19 in 10.0 mi NW 9.2 mph - N/A   Scattered Clouds
1:54 PM 75.4 °F 51.4 °F 43% 30.19 in 10.0 mi NW 8.1 mph - N/A   Clear
2:13 PM 75.7 °F 53.1 °F 45% 30.19 in 10.0 mi WNW 10.4 mph - N/A   Clear
2:34 PM 76.3 °F 53.2 °F 45% 30.19 in 10.0 mi NW 9.2 mph - N/A   Clear
2:53 PM 75.6 °F 52.5 °F 45% 30.19 in 10.0 mi North 5.8 mph 16.1 mph N/A   Scattered Clouds
3:14 PM 76.5 °F 54.0 °F 46% 30.18 in 10.0 mi WNW 10.4 mph - N/A   Clear
3:33 PM 76.5 °F 51.8 °F 42% 30.18 in 10.0 mi North 5.8 mph 9.2 mph N/A   Scattered Clouds
3:54 PM 77.0 °F 50.9 °F 40% 30.18 in 10.0 mi NW 6.9 mph 16.1 mph N/A   Clear
4:07 PM 75.2 °F 50.5 °F 42% 30.18 in 10.0 mi West 5.8 mph - N/A   Clear
4:25 PM 77.0 °F 50.0 °F 39% 30.18 in 10.0 mi NNW 9.2 mph - N/A   Scattered Clouds
4:41 PM 76.8 °F 51.3 °F 41% 30.18 in 10.0 mi NNW 9.2 mph - N/A   Scattered Clouds
4:54 PM 76.3 °F 51.1 °F 41% 30.17 in 10.0 mi NW 9.2 mph - N/A   Scattered Clouds
5:13 PM 76.1 °F 50.2 °F 40% 30.17 in 10.0 mi NW 5.8 mph - N/A   Scattered Clouds
5:34 PM 76.3 °F 50.0 °F 40% 30.17 in 10.0 mi NNW 8.1 mph - N/A   Clear
5:53 PM 76.3 °F 50.2 °F 40% 30.17 in 10.0 mi NW 8.1 mph - N/A   Clear
6:14 PM 74.5 °F 49.5 °F 41% 30.17 in 10.0 mi NW 4.6 mph - N/A   Clear
6:33 PM 75.2 °F 50.5 °F 42% 30.17 in 10.0 mi NNW 8.1 mph - N/A   Clear
6:54 PM 75.2 °F 50.4 °F 42% 30.17 in 10.0 mi North 9.2 mph - N/A   Scattered Clouds
7:13 PM 74.7 °F 51.1 °F 44% 30.17 in 10.0 mi NNW 8.1 mph - N/A   Scattered Clouds
7:33 PM 73.4 °F 51.6 °F 46% 30.17 in 10.0 mi North 5.8 mph - N/A   Scattered Clouds
7:53 PM 72.1 °F 50.4 °F 46% 30.18 in 10.0 mi North 5.8 mph - N/A   Clear
8:13 PM 70.2 °F 50.7 °F 50% 30.18 in 10.0 mi North 4.6 mph - N/A   Clear
8:33 PM 67.3 °F 51.3 °F 56% 30.18 in 10.0 mi Calm Calm - N/A   Clear
8:54 PM 64.8 °F 51.1 °F 61% 30.18 in 10.0 mi North 4.6 mph - N/A   Clear
9:13 PM 62.8 °F 51.6 °F 67% 30.19 in 10.0 mi Calm Calm - N/A   Clear
9:33 PM 61.7 °F 52.0 °F 70% 30.19 in 10.0 mi Calm Calm - N/A   Clear
9:54 PM 61.2 °F 51.4 °F 70% 30.20 in 10.0 mi Calm Calm - N/A   Clear
10:14 PM 59.9 °F 51.3 °F 73% 30.20 in 10.0 mi Calm Calm - N/A   Clear
10:33 PM 61.0 °F 50.9 °F 69% 30.21 in 10.0 mi North 3.5 mph - N/A   Clear
10:54 PM 61.0 °F 51.1 °F 70% 30.21 in 10.0 mi North 3.5 mph - N/A   Clear
11:13 PM 60.6 °F 51.3 °F 71% 30.22 in 10.0 mi North 3.5 mph - N/A   Clear
11:34 PM 59.7 °F 51.4 °F 74% 30.22 in 10.0 mi North 4.6 mph - N/A   Clear
11:54 PM 58.1 °F 51.8 °F 80% 30.23 in 10.0 mi Calm Calm - N/A   Clear